| time (UTC) | temp F | wind direction | speed MPH | gust MPH | rain 1hr in | rain 24hr in | rain mn in | humidity % | barometer mb |
| 20260509012410 | 68 | 286 | 8.0 | 10.0 | 0.00 | 0.00 | 0.00 | 34 | 1012.0 |
| 20260509011907 | 68 | 260 | 9.0 | 10.0 | 0.00 | 0.00 | 0.00 | 32 | 1012.0 |
| 20260509011405 | 68 | 287 | 10.0 | 13.0 | 0.00 | 0.00 | 0.00 | 32 | 1012.0 |
| 20260509010903 | 68 | 311 | 11.0 | 13.0 | 0.00 | 0.00 | 0.00 | 32 | 1011.9 |
| 20260509010400 | 68 | 289 | 11.0 | 14.0 | 0.00 | 0.00 | 0.00 | 32 | 1012.0 |
| 20260509005856 | 69 | 280 | 9.0 | 10.0 | 0.00 | 0.00 | 0.00 | 30 | 1012.1 |
| 20260509005354 | 69 | 271 | 7.0 | 8.0 | 0.00 | 0.00 | 0.00 | 30 | 1011.8 |
| 20260509004849 | 69 | 295 | 14.0 | 16.0 | 0.00 | 0.00 | 0.00 | 29 | 1011.9 |
| 20260509004346 | 69 | 291 | 10.0 | 11.0 | 0.00 | 0.00 | 0.00 | 31 | 1011.8 |
| 20260509003843 | 69 | 303 | 7.0 | 8.0 | 0.00 | 0.00 | 0.00 | 33 | 1011.9 |
| 20260509003341 | 69 | 283 | 8.0 | 10.0 | 0.00 | 0.00 | 0.00 | 33 | 1011.9 |
| 20260509002838 | 70 | 308 | 8.0 | 9.0 | 0.00 | 0.00 | 0.00 | 30 | 1011.8 |
| 20260509002336 | 70 | 285 | 10.0 | 11.0 | 0.00 | 0.00 | 0.00 | 31 | 1011.7 |
| 20260509001833 | 70 | 295 | 10.0 | 13.0 | 0.00 | 0.00 | 0.00 | 28 | 1011.8 |
| 20260509001329 | 70 | 290 | 12.0 | 14.0 | 0.00 | 0.00 | 0.00 | 29 | 1011.7 |
| 20260509000827 | 70 | 274 | 7.0 | 9.0 | 0.00 | 0.00 | 0.00 | 30 | 1011.8 |
| 20260509000325 | 70 | 276 | 8.0 | 8.0 | 0.00 | 0.00 | 0.00 | 32 | 1011.8 |
| 20260508235820 | 70 | 312 | 9.0 | 11.0 | 0.00 | 0.00 | 0.00 | 31 | 1011.8 |
| 20260508235317 | 71 | 302 | 13.0 | 16.0 | 0.00 | 0.00 | 0.00 | 30 | 1011.8 |
| 20260508234815 | 71 | 293 | 11.0 | 13.0 | 0.00 | 0.00 | 0.00 | 30 | 1011.9 |
| 20260508234311 | 72 | 277 | 12.0 | 14.0 | 0.00 | 0.00 | 0.00 | 29 | 1011.8 |
| 20260508233809 | 72 | 294 | 11.0 | 13.0 | 0.00 | 0.00 | 0.00 | 30 | 1011.9 |
| 20260508233308 | 72 | 286 | 12.0 | 14.0 | 0.00 | 0.00 | 0.00 | 27 | 1011.8 |
| 20260508232804 | 72 | 293 | 10.0 | 11.0 | 0.00 | 0.00 | 0.00 | 30 | 1011.9 |
| 20260508232301 | 72 | 284 | 9.0 | 13.0 | 0.00 | 0.00 | 0.00 | 30 | 1011.7 |
| 20260508231759 | 72 | 290 | 8.0 | 9.0 | 0.00 | 0.00 | 0.00 | 29 | 1011.8 |
| 20260508231255 | 73 | 284 | 11.0 | 15.0 | 0.00 | 0.00 | 0.00 | 28 | 1011.8 |
| 20260508230752 | 73 | 282 | 11.0 | 14.0 | 0.00 | 0.00 | 0.00 | 29 | 1011.9 |
| 20260508230248 | 72 | 263 | 10.0 | 11.0 | 0.00 | 0.00 | 0.00 | 30 | 1011.8 |
| 20260508225746 | 72 | 280 | 14.0 | 15.0 | 0.00 | 0.00 | 0.00 | 30 | 1011.8 |
| 20260508225243 | 73 | 274 | 12.0 | 14.0 | 0.00 | 0.00 | 0.00 | 28 | 1011.8 |
| 20260508224740 | 73 | 253 | 15.0 | 17.0 | 0.00 | 0.00 | 0.00 | 29 | 1011.6 |
| 20260508224238 | 73 | 272 | 9.0 | 11.0 | 0.00 | 0.00 | 0.00 | 30 | 1011.6 |
| 20260508223736 | 73 | 260 | 10.0 | 16.0 | 0.00 | 0.00 | 0.00 | 32 | 1011.8 |
| 20260508223232 | 73 | 262 | 11.0 | 16.0 | 0.00 | 0.00 | 0.00 | 31 | 1011.7 |
| 20260508222730 | 73 | 294 | 8.0 | 9.0 | 0.00 | 0.00 | 0.00 | 31 | 1011.8 |
| 20260508222227 | 74 | 276 | 14.0 | 15.0 | 0.00 | 0.00 | 0.00 | 28 | 1011.8 |
| 20260508221723 | 73 | 265 | 9.0 | 10.0 | 0.00 | 0.00 | 0.00 | 29 | 1011.6 |
| 20260508221220 | 73 | 285 | 12.0 | 13.0 | 0.00 | 0.00 | 0.00 | 30 | 1011.7 |
| 20260508220716 | 73 | 264 | 7.0 | 8.0 | 0.00 | 0.00 | 0.00 | 30 | 1011.7 |
| 20260508220213 | 73 | 289 | 11.0 | 11.0 | 0.00 | 0.00 | 0.00 | 30 | 1011.8 |
| 20260508215709 | 73 | 250 | 9.0 | 14.0 | 0.00 | 0.00 | 0.00 | 30 | 1011.9 |
| 20260508215205 | 72 | 281 | 4.0 | 6.0 | 0.00 | 0.00 | 0.00 | 34 | 1011.9 |
| 20260508214703 | 72 | 334 | 7.0 | 7.0 | 0.00 | 0.00 | 0.00 | 31 | 1012.1 |
| 20260508214200 | 71 | 305 | 4.0 | 5.0 | 0.00 | 0.00 | 0.00 | 30 | 1012.1 |
| 20260508213656 | 71 | 295 | 4.0 | 6.0 | 0.00 | 0.00 | 0.00 | 29 | 1012.1 |
| 20260508213153 | 72 | 321 | 4.0 | 6.0 | 0.00 | 0.00 | 0.00 | 30 | 1012.2 |
| 20260508212649 | 71 | 356 | 3.0 | 3.0 | 0.00 | 0.00 | 0.00 | 31 | 1012.1 |
| 20260508212146 | 71 | 318 | 6.0 | 8.0 | 0.00 | 0.00 | 0.00 | 30 | 1012.1 |
| 20260508211641 | 71 | 315 | 4.0 | 5.0 | 0.00 | 0.00 | 0.00 | 34 | 1012.6 |
| 20260508211138 | 71 | 336 | 5.0 | 7.0 | 0.00 | 0.00 | 0.00 | 33 | 1012.6 |
| 20260508210634 | 72 | 329 | 4.0 | 7.0 | 0.00 | 0.00 | 0.00 | 33 | 1012.5 |
| 20260508210132 | 73 | 257 | 9.0 | 9.0 | 0.00 | 0.00 | 0.00 | 32 | 1012.7 |
| 20260508205629 | 72 | 321 | 4.0 | 6.0 | 0.00 | 0.00 | 0.00 | 34 | 1012.7 |
| 20260508205125 | 73 | 301 | 6.0 | 7.0 | 0.00 | 0.00 | 0.00 | 34 | 1012.8 |
| 20260508204621 | 73 | 307 | 1.0 | 2.0 | 0.00 | 0.00 | 0.00 | 35 | 1012.6 |
| 20260508204118 | 72 | 45 | 2.0 | 3.0 | 0.00 | 0.00 | 0.00 | 35 | 1012.7 |
| 20260508203614 | 72 | 82 | 2.0 | 2.0 | 0.00 | 0.00 | 0.00 | 33 | 1012.7 |
| 20260508203110 | 73 | 79 | 3.0 | 3.0 | 0.00 | 0.00 | 0.00 | 34 | 1012.9 |
| 20260508202607 | 71 | 308 | 1.0 | 1.0 | 0.00 | 0.00 | 0.00 | 33 | 1012.9 |
| 20260508202104 | 72 | 15 | 3.0 | 5.0 | 0.00 | 0.00 | 0.00 | 33 | 1012.9 |
| 20260508201601 | 71 | 86 | 1.0 | 2.0 | 0.00 | 0.00 | 0.00 | 34 | 1013.1 |
| 20260508201057 | 70 | 70 | 4.0 | 5.0 | 0.00 | 0.00 | 0.00 | 34 | 1013.0 |
| 20260508200554 | 70 | 72 | 1.0 | 1.0 | 0.00 | 0.00 | 0.00 | 36 | 1013.2 |
| 20260508200049 | 70 | 329 | 5.0 | 6.0 | 0.00 | 0.00 | 0.00 | 35 | 1013.4 |
| 20260508195547 | 71 | 338 | 0.0 | 1.0 | 0.00 | 0.00 | 0.00 | 35 | 1013.1 |
| 20260508195043 | 70 | 268 | 4.0 | 5.0 | 0.00 | 0.00 | 0.00 | 33 | 1013.2 |
| 20260508194540 | 70 | 230 | 1.0 | 1.0 | 0.00 | 0.00 | 0.00 | 32 | 1013.2 |
| 20260508194037 | 70 | 115 | 1.0 | 1.0 | 0.00 | 0.00 | 0.00 | 30 | 1013.4 |
| 20260508193533 | 70 | 300 | 7.0 | 8.0 | 0.00 | 0.00 | 0.00 | 34 | 1013.5 |
| 20260508193030 | 71 | 329 | 2.0 | 2.0 | 0.00 | 0.00 | 0.00 | 37 | 1013.5 |
| 20260508192527 | 70 | 254 | 1.0 | 1.0 | 0.00 | 0.00 | 0.00 | 36 | 1013.6 |
| 20260508192025 | 71 | 48 | 1.0 | 2.0 | 0.00 | 0.00 | 0.00 | 41 | 1013.5 |
| 20260508191521 | 70 | 359 | 2.0 | 2.0 | 0.00 | 0.00 | 0.00 | 40 | 1013.7 |
| 20260508191018 | 69 | 355 | 3.0 | 3.0 | 0.00 | 0.00 | 0.00 | 40 | 1013.7 |
| 20260508190515 | 68 | 357 | 5.0 | 6.0 | 0.00 | 0.00 | 0.00 | 38 | 1013.7 |
| 20260508190011 | 70 | 278 | 5.0 | 6.0 | 0.00 | 0.00 | 0.00 | 37 | 1013.9 |
| 20260508185509 | 69 | 230 | 0.0 | 1.0 | 0.00 | 0.00 | 0.00 | 34 | 1014.0 |
| 20260508185007 | 70 | 43 | 1.0 | 1.0 | 0.00 | 0.00 | 0.00 | 42 | 1014.1 |
| 20260508184504 | 69 | 91 | 2.0 | 2.0 | 0.00 | 0.00 | 0.00 | 43 | 1014.1 |
| 20260508184000 | 68 | 40 | 4.0 | 5.0 | 0.00 | 0.00 | 0.00 | 45 | 1014.4 |
| 20260508183456 | 68 | 50 | 2.0 | 3.0 | 0.00 | 0.00 | 0.00 | 47 | 1014.4 |
| 20260508182951 | 68 | 358 | 1.0 | 2.0 | 0.00 | 0.00 | 0.00 | 45 | 1014.2 |
| 20260508182449 | 67 | 328 | 4.0 | 5.0 | 0.00 | 0.00 | 0.00 | 45 | 1014.4 |
| 20260508181944 | 68 | 17 | 3.0 | 5.0 | 0.00 | 0.00 | 0.00 | 46 | 1014.7 |
| 20260508181441 | 68 | 45 | 2.0 | 2.0 | 0.00 | 0.00 | 0.00 | 46 | 1014.7 |
| 20260508180939 | 67 | 158 | 5.0 | 7.0 | 0.00 | 0.00 | 0.00 | 45 | 1014.7 |
| 20260508180435 | 67 | 101 | 4.0 | 5.0 | 0.00 | 0.00 | 0.00 | 48 | 1014.7 |
| 20260508175931 | 66 | 78 | 1.0 | 1.0 | 0.00 | 0.00 | 0.00 | 50 | 1014.8 |
| 20260508175428 | 66 | 32 | 1.0 | 1.0 | 0.00 | 0.00 | 0.00 | 48 | 1014.9 |
| 20260508174926 | 66 | 65 | 3.0 | 3.0 | 0.00 | 0.00 | 0.00 | 49 | 1015.0 |
| 20260508174423 | 64 | 123 | 5.0 | 6.0 | 0.00 | 0.00 | 0.00 | 51 | 1015.0 |
| 20260508173919 | 64 | 166 | 3.0 | 5.0 | 0.00 | 0.00 | 0.00 | 52 | 1015.1 |
| 20260508173417 | 64 | 90 | 2.0 | 2.0 | 0.00 | 0.00 | 0.00 | 53 | 1015.4 |
| 20260508172912 | 64 | 54 | 2.0 | 2.0 | 0.00 | 0.00 | 0.00 | 53 | 1015.4 |
| 20260508172410 | 64 | 81 | 4.0 | 5.0 | 0.00 | 0.00 | 0.00 | 54 | 1015.4 |
| 20260508171906 | 63 | 29 | 4.0 | 5.0 | 0.00 | 0.00 | 0.00 | 54 | 1015.5 |
| 20260508171403 | 62 | 91 | 3.0 | 3.0 | 0.00 | 0.00 | 0.00 | 55 | 1015.6 |
| 20260508170859 | 62 | 71 | 4.0 | 6.0 | 0.00 | 0.00 | 0.00 | 58 | 1015.5 |
| 20260508170357 | 61 | 145 | 5.0 | 6.0 | 0.00 | 0.00 | 0.00 | 56 | 1015.6 |
| 20260508165853 | 62 | 94 | 7.0 | 7.0 | 0.00 | 0.00 | 0.00 | 57 | 1015.6 |
| 20260508165351 | 61 | 317 | 1.0 | 1.0 | 0.00 | 0.00 | 0.00 | 57 | 1015.8 |
| 20260508164847 | 60 | 121 | 3.0 | 6.0 | 0.00 | 0.00 | 0.00 | 60 | 1015.9 |
| 20260508164344 | 61 | 45 | 1.0 | 1.0 | 0.00 | 0.00 | 0.00 | 59 | 1015.9 |
| 20260508163841 | 60 | 95 | 3.0 | 5.0 | 0.00 | 0.00 | 0.00 | 61 | 1015.9 |
| 20260508163339 | 59 | 53 | 0.0 | 0.0 | 0.00 | 0.00 | 0.00 | 63 | 1016.0 |
| 20260508162834 | 60 | 91 | 5.0 | 6.0 | 0.00 | 0.00 | 0.00 | 63 | 1015.9 |
| 20260508162332 | 60 | 82 | 5.0 | 6.0 | 0.00 | 0.00 | 0.00 | 63 | 1016.1 |
| 20260508161829 | 58 | 113 | 3.0 | 3.0 | 0.00 | 0.00 | 0.00 | 66 | 1016.1 |
| 20260508161326 | 59 | 104 | 3.0 | 3.0 | 0.00 | 0.00 | 0.00 | 65 | 1016.0 |
| 20260508160823 | 59 | 48 | 1.0 | 2.0 | 0.00 | 0.00 | 0.00 | 65 | 1016.3 |
| 20260508160322 | 57 | 64 | 2.0 | 3.0 | 0.00 | 0.00 | 0.00 | 69 | 1016.1 |
| 20260508155818 | 56 | 80 | 2.0 | 2.0 | 0.00 | 0.00 | 0.00 | 69 | 1016.1 |
| 20260508155315 | 56 | 113 | 4.0 | 5.0 | 0.00 | 0.00 | 0.00 | 68 | 1016.3 |
| 20260508154812 | 56 | 61 | 3.0 | 3.0 | 0.00 | 0.00 | 0.00 | 68 | 1016.3 |
| 20260508154310 | 56 | 102 | 1.0 | 1.0 | 0.00 | 0.00 | 0.00 | 67 | 1016.4 |
| 20260508153806 | 55 | 109 | 0.0 | 0.0 | 0.00 | 0.00 | 0.00 | 69 | 1016.5 |
| 20260508153304 | 54 | 89 | 3.0 | 3.0 | 0.00 | 0.00 | 0.00 | 69 | 1016.6 |
| 20260508152759 | 54 | 92 | 1.0 | 2.0 | 0.00 | 0.00 | 0.00 | 70 | 1016.7 |
| 20260508152256 | 53 | 138 | 1.0 | 1.0 | 0.00 | 0.00 | 0.00 | 74 | 1016.6 |
| 20260508151752 | 52 | 190 | 0.0 | 1.0 | 0.00 | 0.00 | 0.00 | 74 | 1016.7 |
| 20260508151249 | 51 | 203 | 2.0 | 2.0 | 0.00 | 0.00 | 0.00 | 75 | 1016.5 |
| 20260508150745 | 51 | 247 | 3.0 | 3.0 | 0.00 | 0.00 | 0.00 | 76 | 1016.6 |
| 20260508150242 | 50 | 205 | 1.0 | 1.0 | 0.00 | 0.00 | 0.00 | 77 | 1016.7 |
| 20260508145738 | 50 | 236 | 3.0 | 3.0 | 0.00 | 0.00 | 0.00 | 77 | 1016.7 |
| 20260508145235 | 50 | 274 | 0.0 | 1.0 | 0.00 | 0.00 | 0.00 | 79 | 1016.9 |
| 20260508144732 | 49 | 274 | 1.0 | 2.0 | 0.00 | 0.00 | 0.00 | 82 | 1016.7 |
| 20260508144230 | 49 | 345 | 1.0 | 1.0 | 0.00 | 0.00 | 0.00 | 81 | 1016.6 |
| 20260508143727 | 50 | 347 | 1.0 | 1.0 | 0.00 | 0.00 | 0.00 | 78 | 1016.8 |
| 20260508143224 | 49 | 77 | 0.0 | 0.0 | 0.00 | 0.00 | 0.00 | 80 | 1016.8 |
| 20260508142720 | 49 | 62 | 0.0 | 0.0 | 0.00 | 0.00 | 0.00 | 79 | 1016.9 |
| 20260508142217 | 48 | 62 | 0.0 | 0.0 | 0.00 | 0.00 | 0.00 | 83 | 1016.8 |
| 20260508141714 | 47 | 334 | 2.0 | 2.0 | 0.00 | 0.00 | 0.00 | 83 | 1016.8 |
| 20260508141211 | 46 | 4 | 0.0 | 0.0 | 0.00 | 0.00 | 0.00 | 84 | 1017.0 |
| 20260508140708 | 46 | 354 | 0.0 | 0.0 | 0.00 | 0.00 | 0.00 | 85 | 1016.9 |
| 20260508140205 | 44 | 354 | 0.0 | 0.0 | 0.00 | 0.00 | 0.00 | 87 | 1017.0 |
| 20260508135701 | 44 | 316 | 2.0 | 2.0 | 0.00 | 0.00 | 0.00 | 88 | 1016.9 |
| 20260508135201 | 44 | 296 | 2.0 | 2.0 | 0.00 | 0.00 | 0.00 | 87 | 1017.0 |
| 20260508134658 | 44 | 350 | 0.0 | 0.0 | 0.00 | 0.00 | 0.00 | 87 | 1016.9 |
| 20260508134155 | 44 | 347 | 0.0 | 0.0 | 0.00 | 0.00 | 0.00 | 86 | 1016.9 |
| 20260508133652 | 45 | 9 | 0.0 | 0.0 | 0.00 | 0.00 | 0.00 | 85 | 1017.0 |
| 20260508133149 | 44 | 8 | 0.0 | 0.0 | 0.00 | 0.00 | 0.00 | 89 | 1016.9 |
| 20260508132647 | 42 | 6 | 0.0 | 0.0 | 0.00 | 0.00 | 0.00 | 89 | 1016.7 |
| 20260508132144 | 42 | 357 | 0.0 | 0.0 | 0.00 | 0.00 | 0.00 | 89 | 1017.0 |
| 20260508131640 | 42 | 327 | 1.0 | 2.0 | 0.00 | 0.00 | 0.00 | 89 | 1016.9 |
| 20260508131136 | 42 | 0 | 1.0 | 1.0 | 0.00 | 0.00 | 0.00 | 89 | 1016.8 |
| 20260508130633 | 42 | 10 | 0.0 | 0.0 | 0.00 | 0.00 | 0.00 | 89 | 1016.9 |
| 20260508130130 | 42 | 9 | 0.0 | 0.0 | 0.00 | 0.00 | 0.00 | 91 | 1016.8 |
| 20260508125625 | 41 | 1 | 0.0 | 0.0 | 0.00 | 0.00 | 0.00 | 91 | 1016.8 |
| 20260508125123 | 40 | 356 | 0.0 | 0.0 | 0.00 | 0.00 | 0.00 | 92 | 1016.9 |
| 20260508124621 | 40 | 23 | 0.0 | 0.0 | 0.00 | 0.00 | 0.00 | 92 | 1016.7 |
| 20260508124118 | 40 | 48 | 0.0 | 0.0 | 0.00 | 0.00 | 0.00 | 93 | 1016.9 |
| 20260508123616 | 40 | 28 | 0.0 | 0.0 | 0.00 | 0.00 | 0.00 | 93 | 1016.7 |
| 20260508123113 | 39 | 75 | 0.0 | 0.0 | 0.00 | 0.00 | 0.00 | 94 | 1016.6 |
| 20260508122609 | 38 | 74 | 0.0 | 0.0 | 0.00 | 0.00 | 0.00 | 94 | 1016.6 |
| 20260508122107 | 39 | 100 | 0.0 | 0.0 | 0.00 | 0.00 | 0.00 | 94 | 1016.6 |
| 20260508121605 | 39 | 100 | 0.0 | 0.0 | 0.00 | 0.00 | 0.00 | 94 | 1016.5 |
| 20260508121102 | 39 | 98 | 1.0 | 2.0 | 0.00 | 0.00 | 0.00 | 94 | 1016.6 |
| 20260508120600 | 39 | 26 | 0.0 | 0.0 | 0.00 | 0.00 | 0.00 | 93 | 1016.5 |
| 20260508120058 | 38 | 26 | 0.0 | 0.0 | 0.00 | 0.00 | 0.00 | 93 | 1016.5 |
| 20260508115555 | 39 | 26 | 0.0 | 0.0 | 0.00 | 0.00 | 0.00 | 92 | 1016.5 |
| 20260508115051 | 39 | 331 | 1.0 | 1.0 | 0.00 | 0.00 | 0.00 | 92 | 1016.5 |
| 20260508114549 | 39 | 29 | 0.0 | 0.0 | 0.00 | 0.00 | 0.00 | 92 | 1016.3 |
| 20260508114045 | 40 | 29 | 0.0 | 0.0 | 0.00 | 0.00 | 0.00 | 91 | 1016.6 |
| 20260508113542 | 41 | 14 | 0.0 | 0.0 | 0.00 | 0.00 | 0.00 | 92 | 1016.4 |
| 20260508113040 | 39 | 53 | 0.0 | 0.0 | 0.00 | 0.00 | 0.00 | 91 | 1016.5 |
| 20260508112536 | 40 | 53 | 0.0 | 0.0 | 0.00 | 0.00 | 0.00 | 89 | 1016.5 |
| 20260508112033 | 40 | 64 | 0.0 | 0.0 | 0.00 | 0.00 | 0.00 | 89 | 1016.6 |
| 20260508111530 | 41 | 68 | 0.0 | 0.0 | 0.00 | 0.00 | 0.00 | 87 | 1016.4 |
| 20260508111027 | 43 | 111 | 1.0 | 1.0 | 0.00 | 0.00 | 0.00 | 85 | 1016.4 |
| 20260508110525 | 43 | 117 | 0.0 | 1.0 | 0.00 | 0.00 | 0.00 | 85 | 1016.5 |
| 20260508110021 | 43 | 123 | 1.0 | 1.0 | 0.00 | 0.00 | 0.00 | 84 | 1016.1 |
| 20260508105516 | 44 | 190 | 1.0 | 2.0 | 0.00 | 0.00 | 0.00 | 82 | 1016.3 |
| 20260508105014 | 44 | 162 | 5.0 | 6.0 | 0.00 | 0.00 | 0.00 | 84 | 1016.3 |
| 20260508104511 | 43 | 171 | 3.0 | 3.0 | 0.00 | 0.00 | 0.00 | 86 | 1016.3 |
| 20260508104007 | 43 | 163 | 3.0 | 3.0 | 0.00 | 0.00 | 0.00 | 85 | 1016.1 |
| 20260508103504 | 44 | 169 | 1.0 | 2.0 | 0.00 | 0.00 | 0.00 | 84 | 1016.0 |
| 20260508103001 | 44 | 158 | 3.0 | 3.0 | 0.00 | 0.00 | 0.00 | 84 | 1016.3 |
| 20260508102500 | 44 | 167 | 3.0 | 3.0 | 0.00 | 0.00 | 0.00 | 85 | 1016.3 |
| 20260508101956 | 44 | 144 | 3.0 | 5.0 | 0.00 | 0.00 | 0.00 | 86 | 1016.3 |
| 20260508101454 | 44 | 144 | 3.0 | 3.0 | 0.00 | 0.00 | 0.00 | 84 | 1016.1 |
| 20260508100951 | 44 | 125 | 2.0 | 2.0 | 0.00 | 0.00 | 0.00 | 85 | 1016.0 |
| 20260508100450 | 44 | 111 | 1.0 | 2.0 | 0.00 | 0.00 | 0.00 | 85 | 1016.0 |
| 20260508095945 | 45 | 56 | 1.0 | 1.0 | 0.00 | 0.00 | 0.00 | 84 | 1016.3 |
| 20260508095443 | 44 | 109 | 2.0 | 2.0 | 0.00 | 0.00 | 0.00 | 84 | 1016.1 |
| 20260508094939 | 43 | 105 | 2.0 | 2.0 | 0.00 | 0.00 | 0.00 | 88 | 1016.1 |
| 20260508094431 | 42 | 88 | 3.0 | 3.0 | 0.00 | 0.00 | 0.00 | 89 | 1016.1 |
| 20260508093928 | 44 | 86 | 3.0 | 3.0 | 0.00 | 0.00 | 0.00 | 89 | 1016.3 |
| 20260508093425 | 44 | 69 | 2.0 | 2.0 | 0.00 | 0.00 | 0.00 | 89 | 1016.3 |
| 20260508092923 | 44 | 67 | 0.0 | 0.0 | 0.00 | 0.00 | 0.00 | 90 | 1016.1 |
| 20260508092421 | 44 | 67 | 0.0 | 0.0 | 0.00 | 0.00 | 0.00 | 90 | 1016.3 |
| 20260508091919 | 43 | 67 | 0.0 | 0.0 | 0.00 | 0.00 | 0.00 | 91 | 1016.1 |
| 20260508091415 | 43 | 67 | 0.0 | 0.0 | 0.00 | 0.00 | 0.00 | 91 | 1016.1 |
| 20260508090913 | 43 | 67 | 0.0 | 0.0 | 0.00 | 0.00 | 0.00 | 90 | 1016.1 |
| 20260508090411 | 44 | 96 | 0.0 | 0.0 | 0.00 | 0.00 | 0.00 | 90 | 1016.3 |
| 20260508085906 | 44 | 89 | 2.0 | 2.0 | 0.00 | 0.00 | 0.00 | 89 | 1016.3 |
| 20260508085403 | 44 | 37 | 0.0 | 1.0 | 0.00 | 0.00 | 0.00 | 89 | 1016.1 |
| 20260508084900 | 44 | 68 | 2.0 | 2.0 | 0.00 | 0.00 | 0.00 | 89 | 1015.9 |
| 20260508084356 | 45 | 42 | 0.0 | 0.0 | 0.00 | 0.00 | 0.00 | 89 | 1016.3 |
| 20260508083854 | 45 | 57 | 0.0 | 0.0 | 0.00 | 0.00 | 0.00 | 88 | 1016.3 |
| 20260508083352 | 46 | 57 | 0.0 | 0.0 | 0.00 | 0.00 | 0.00 | 88 | 1016.1 |
| 20260508082851 | 46 | 57 | 0.0 | 0.0 | 0.00 | 0.00 | 0.00 | 88 | 1016.4 |
| 20260508082349 | 46 | 57 | 1.0 | 1.0 | 0.00 | 0.00 | 0.00 | 87 | 1016.4 |
| 20260508081846 | 46 | 96 | 2.0 | 2.0 | 0.00 | 0.00 | 0.00 | 88 | 1016.3 |
| 20260508081343 | 46 | 89 | 3.0 | 3.0 | 0.00 | 0.00 | 0.00 | 88 | 1016.3 |
| 20260508080840 | 47 | 91 | 3.0 | 3.0 | 0.00 | 0.00 | 0.00 | 86 | 1016.4 |
| 20260508080338 | 47 | 91 | 1.0 | 2.0 | 0.00 | 0.00 | 0.00 | 86 | 1016.5 |
| 20260508075834 | 47 | 124 | 0.0 | 0.0 | 0.00 | 0.00 | 0.00 | 85 | 1016.3 |
| 20260508075331 | 48 | 125 | 1.0 | 1.0 | 0.00 | 0.00 | 0.00 | 85 | 1016.3 |
| 20260508074829 | 48 | 232 | 2.0 | 2.0 | 0.00 | 0.00 | 0.00 | 83 | 1016.3 |
| 20260508074326 | 48 | 225 | 1.0 | 1.0 | 0.00 | 0.00 | 0.00 | 83 | 1016.3 |
| 20260508073823 | 49 | 226 | 2.0 | 2.0 | 0.00 | 0.00 | 0.00 | 83 | 1016.3 |
| 20260508073321 | 49 | 225 | 2.0 | 2.0 | 0.00 | 0.00 | 0.00 | 83 | 1016.1 |
| 20260508072817 | 49 | 211 | 4.0 | 5.0 | 0.00 | 0.00 | 0.00 | 83 | 1016.4 |
| 20260508072314 | 49 | 208 | 5.0 | 6.0 | 0.00 | 0.00 | 0.00 | 84 | 1016.1 |
| 20260508071811 | 48 | 220 | 5.0 | 6.0 | 0.00 | 0.00 | 0.00 | 84 | 1016.3 |
| 20260508071309 | 48 | 226 | 5.0 | 7.0 | 0.00 | 0.00 | 0.00 | 84 | 1016.4 |
| 20260508070806 | 49 | 212 | 6.0 | 7.0 | 0.00 | 0.00 | 0.00 | 83 | 1016.4 |
| 20260508070305 | 50 | 179 | 2.0 | 2.0 | 0.00 | 0.00 | 0.00 | 79 | 1016.3 |
| 20260508065802 | 50 | 180 | 3.0 | 3.0 | 0.00 | 0.00 | 0.00 | 78 | 1016.4 |
| 20260508065259 | 50 | 152 | 2.0 | 2.0 | 0.00 | 0.00 | 0.00 | 79 | 1016.3 |
| 20260508064757 | 50 | 121 | 2.0 | 2.0 | 0.00 | 0.00 | 0.00 | 80 | 1016.4 |
| 20260508064255 | 50 | 100 | 2.0 | 2.0 | 0.00 | 0.00 | 0.00 | 79 | 1016.3 |
| 20260508063752 | 50 | 83 | 2.0 | 2.0 | 0.00 | 0.00 | 0.00 | 79 | 1016.4 |
| 20260508063250 | 49 | 111 | 3.0 | 3.0 | 0.00 | 0.00 | 0.00 | 81 | 1016.3 |
| 20260508062747 | 49 | 67 | 2.0 | 2.0 | 0.00 | 0.00 | 0.00 | 83 | 1016.5 |
| 20260508062245 | 50 | 339 | 4.0 | 6.0 | 0.00 | 0.00 | 0.00 | 80 | 1016.5 |
| 20260508061741 | 49 | 58 | 0.0 | 0.0 | 0.00 | 0.00 | 0.00 | 78 | 1016.3 |
| 20260508061238 | 49 | 72 | 0.0 | 0.0 | 0.00 | 0.00 | 0.00 | 79 | 1016.1 |
| 20260508060735 | 50 | 91 | 3.0 | 3.0 | 0.00 | 0.00 | 0.00 | 78 | 1016.0 |
| 20260508060233 | 50 | 87 | 1.0 | 1.0 | 0.00 | 0.00 | 0.00 | 78 | 1015.9 |
| 20260508055728 | 51 | 61 | 2.0 | 2.0 | 0.00 | 0.04 | 0.04 | 77 | 1015.8 |
| 20260508055225 | 51 | 193 | 1.0 | 1.0 | 0.00 | 0.04 | 0.04 | 77 | 1015.8 |
| 20260508054721 | 50 | 201 | 4.0 | 5.0 | 0.00 | 0.04 | 0.04 | 77 | 1015.7 |
| 20260508054220 | 51 | 190 | 4.0 | 5.0 | 0.00 | 0.04 | 0.04 | 77 | 1015.5 |
| 20260508053716 | 51 | 169 | 5.0 | 7.0 | 0.00 | 0.04 | 0.04 | 76 | 1015.5 |
| 20260508053214 | 51 | 159 | 4.0 | 6.0 | 0.00 | 0.04 | 0.04 | 76 | 1015.6 |
| 20260508052711 | 50 | 119 | 2.0 | 2.0 | 0.00 | 0.04 | 0.04 | 77 | 1015.9 |
| 20260508052208 | 50 | 120 | 2.0 | 2.0 | 0.00 | 0.04 | 0.04 | 76 | 1015.7 |
| 20260508051704 | 50 | 179 | 3.0 | 3.0 | 0.00 | 0.04 | 0.04 | 76 | 1015.7 |
| 20260508051159 | 49 | 143 | 3.0 | 3.0 | 0.00 | 0.04 | 0.04 | 78 | 1015.6 |
| 20260508050656 | 49 | 42 | 1.0 | 1.0 | 0.00 | 0.04 | 0.04 | 80 | 1015.8 |
| 20260508050154 | 51 | 48 | 1.0 | 2.0 | 0.00 | 0.04 | 0.04 | 76 | 1015.8 |
| 20260508045649 | 50 | 105 | 2.0 | 2.0 | 0.00 | 0.04 | 0.04 | 79 | 1015.7 |
| 20260508045147 | 49 | 108 | 1.0 | 1.0 | 0.00 | 0.04 | 0.04 | 80 | 1015.7 |
| 20260508044644 | 49 | 86 | 3.0 | 3.0 | 0.00 | 0.04 | 0.04 | 81 | 1015.4 |
| 20260508044140 | 51 | 59 | 3.0 | 5.0 | 0.00 | 0.04 | 0.04 | 78 | 1015.5 |
| 20260508043636 | 51 | 169 | 1.0 | 2.0 | 0.00 | 0.04 | 0.04 | 78 | 1015.4 |
| 20260508043135 | 51 | 127 | 1.0 | 2.0 | 0.00 | 0.04 | 0.04 | 77 | 1015.4 |
| 20260508042631 | 51 | 137 | 1.0 | 1.0 | 0.00 | 0.04 | 0.04 | 76 | 1015.4 |
| 20260508042128 | 51 | 169 | 2.0 | 2.0 | 0.00 | 0.04 | 0.04 | 76 | 1015.4 |
| 20260508041624 | 51 | 135 | 3.0 | 3.0 | 0.00 | 0.04 | 0.04 | 75 | 1015.1 |
| 20260508041121 | 52 | 128 | 3.0 | 3.0 | 0.00 | 0.04 | 0.04 | 73 | 1015.3 |
| 20260508040618 | 53 | 135 | 2.0 | 2.0 | 0.00 | 0.04 | 0.04 | 73 | 1015.3 |
| 20260508040116 | 53 | 115 | 3.0 | 3.0 | 0.00 | 0.04 | 0.04 | 72 | 1015.3 |
| 20260508035613 | 53 | 114 | 3.0 | 3.0 | 0.00 | 0.04 | 0.04 | 72 | 1015.3 |
| 20260508035110 | 53 | 150 | 4.0 | 5.0 | 0.00 | 0.04 | 0.04 | 70 | 1015.3 |
| 20260508034606 | 53 | 116 | 2.0 | 2.0 | 0.00 | 0.04 | 0.04 | 69 | 1015.3 |
| 20260508034103 | 53 | 114 | 0.0 | 0.0 | 0.00 | 0.04 | 0.04 | 69 | 1015.1 |
| 20260508033601 | 54 | 113 | 0.0 | 0.0 | 0.00 | 0.04 | 0.04 | 68 | 1014.9 |
| 20260508033059 | 54 | 148 | 0.0 | 0.0 | 0.00 | 0.04 | 0.04 | 68 | 1014.9 |
| 20260508032555 | 54 | 117 | 1.0 | 1.0 | 0.00 | 0.04 | 0.04 | 68 | 1014.9 |
| 20260508032053 | 54 | 79 | 1.0 | 1.0 | 0.00 | 0.04 | 0.04 | 68 | 1015.0 |
| 20260508031550 | 55 | 79 | 2.0 | 2.0 | 0.00 | 0.04 | 0.04 | 66 | 1014.8 |
| 20260508031046 | 55 | 78 | 1.0 | 1.0 | 0.00 | 0.04 | 0.04 | 66 | 1014.8 |
| 20260508030542 | 55 | 74 | 3.0 | 3.0 | 0.00 | 0.04 | 0.04 | 67 | 1014.5 |
| 20260508030041 | 56 | 122 | 1.0 | 1.0 | 0.00 | 0.04 | 0.04 | 63 | 1014.4 |
| 20260508025536 | 57 | 193 | 0.0 | 0.0 | 0.00 | 0.04 | 0.04 | 62 | 1014.6 |
| 20260508025034 | 57 | 193 | 0.0 | 0.0 | 0.00 | 0.04 | 0.04 | 61 | 1014.6 |
| 20260508024529 | 57 | 193 | 2.0 | 2.0 | 0.00 | 0.04 | 0.04 | 61 | 1014.4 |
| 20260508024026 | 58 | 197 | 4.0 | 5.0 | 0.00 | 0.04 | 0.04 | 60 | 1014.4 |
| 20260508023523 | 58 | 168 | 2.0 | 2.0 | 0.00 | 0.04 | 0.04 | 60 | 1014.2 |
| 20260508023021 | 59 | 153 | 1.0 | 2.0 | 0.00 | 0.04 | 0.04 | 59 | 1014.4 |
| 20260508022516 | 59 | 154 | 2.0 | 2.0 | 0.00 | 0.04 | 0.04 | 58 | 1014.1 |
| 20260508022013 | 60 | 183 | 1.0 | 1.0 | 0.00 | 0.04 | 0.04 | 57 | 1014.0 |
| 20260508021509 | 60 | 198 | 2.0 | 2.0 | 0.00 | 0.04 | 0.04 | 56 | 1014.2 |
| 20260508021005 | 60 | 177 | 1.0 | 1.0 | 0.00 | 0.04 | 0.04 | 56 | 1014.1 |
| 20260508020503 | 61 | 215 | 1.0 | 1.0 | 0.00 | 0.04 | 0.04 | 54 | 1014.0 |
| 20260508020000 | 62 | 164 | 1.0 | 1.0 | 0.00 | 0.04 | 0.04 | 54 | 1014.0 |
| 20260508015458 | 62 | 204 | 3.0 | 3.0 | 0.00 | 0.04 | 0.04 | 52 | 1014.1 |
| 20260508014954 | 62 | 197 | 4.0 | 5.0 | 0.00 | 0.04 | 0.04 | 52 | 1014.1 |
| 20260508014451 | 62 | 182 | 3.0 | 3.0 | 0.00 | 0.04 | 0.04 | 52 | 1013.9 |
| 20260508013947 | 62 | 214 | 5.0 | 5.0 | 0.00 | 0.04 | 0.04 | 51 | 1013.9 |
| 20260508013443 | 62 | 222 | 4.0 | 5.0 | 0.00 | 0.04 | 0.04 | 51 | 1013.9 |
| 20260508012941 | 62 | 155 | 4.0 | 5.0 | 0.00 | 0.04 | 0.04 | 52 | 1013.8 |